P/2008 T4 ( Hill )

Japanese version
Home page
Updated on March 10, 2009

---------------------------------------------------------------------

* Profile

Discovery Date October 8, 2008
Magnitude 17.9 mag
Discoverer R. E. Hill (Catalina Sky Survey)

* Pictures

* Orbital Elements

Epoch 2009 Jan. 9.0 TT = JDT 2454840.5
T 2008 Dec. 23.91678 TT                                 MPC
q   2.5118708            (2000.0)            P               Q
n   0.10510150     Peri.    1.24757     +0.69561908     -0.71421970
a   4.4469621      Node    44.68329     +0.65817101     +0.59033815
e   0.4351490      Incl.    6.32654     +0.28796706     +0.37602006
P   9.38

* Magnitudes Graph

        m1 = 12.5 + 5 log d + 10.0 log r

---------------------------------------------------------------------

The orbital elements are published on M.P.E.C. 2008-X61.
The magnitudes graphs are made with Comet for Windows.

---------------------------------------------------------------------

Copyright(C) Seiichi Yoshida (comet@aerith.net). All rights reserved.